Location: Marcé
(47.5801°N, 0.3280°W)
Time: 22:25:18
(UTC+01:00)

Transit 2A - Pass Details

Date: 30 November 2021
Orbit: 591 x 967 km, 66.7° (Epoch: 16 January)

Event Time Altitude Azimuth Distance (km) Brightness Sun altitude
Rises 08:52:29 0° 326° (NW) 3,634 8.9 2.7°
Reaches altitude 10° 08:55:25 10° 337° (NNW) 2,706 8.3 3.0°
Maximum altitude 09:00:54 29° 36° (NE) 1,692 7.8 3.8°
Drops below altitude 10° 09:06:20 10° 95° (E) 2,674 9.9 4.5°
Sets 09:09:12 0° 107° (ESE) 3,584 10.9 4.9°
